Waterloo, IA

9:52 AM CDT on August 23, 2017 (GMT -0500)
Waterloo Municipal

Weather History for KALO - September, 2013

Change the Weather History Date:

Saturday, September 21, 2013

  Actual Average Record
Temperature  
Mean Temperature 55 °F 61 °F  
Max Temperature 68 °F 73 °F 94 °F (1908)
Min Temperature 42 °F 48 °F 27 °F (1918)
Degree Days  
Heating Degree Days 10 6  
Month to date heating degree days 65 69  
Since 1 July heating degree days 85 89  
Cooling Degree Days 0 2  
Month to date cooling degree days 122 68  
Year to date cooling degree days 818 780  
Growing Degree Days 5 (Base 50)    
Moisture  
Dew Point 46 °F    
Average Humidity 72    
Maximum Humidity 96    
Minimum Humidity 48    
Precipitation  
Precipitation 0.00 in 0.09 in 3.08 in (1950)
Month to date precipitation 1.25 1.89  
Year to date precipitation 35.54 28.17  
Snow  
Snow 0.00 in 0.00 in - ()
Month to date snowfall 0.0 0.0  
Since 1 July snowfall 0.0 0.0  
Since 1 September snowfall 0.0 0.0  
Snow Depth 0.00 in    
Sea Level Pressure  
Sea Level Pressure 29.96 in    
Wind  
Wind Speed 5 mph (NW)    
Max Wind Speed 14 mph    
Max Gust Speed 22 mph    
Visibility 10 miles    
Events      
T = Trace of Precipitation, MM = Missing Value Source: NWS Daily Summary

Daily Weather History Graph

Daily Weather History Graph

Search for Another Location

Airport or City:

Trip Planner

Search our weather history database for the weather conditions in past years. The results will help you decide how hot, cold, wet, or windy it might be!

Date:

Astronomy

Sep. 21, 2013 Rise Set
Actual Time 6:56 AM CDT 7:08 PM CDT
Civil Twilight 6:28 AM CDT 7:36 PM CDT
Nautical Twilight 5:54 AM CDT 8:09 PM CDT
Astronomical Twilight 5:21 AM CDT 8:42 PM CDT
Moon 8:14 PM CDT (9/21) 9:19 AM CDT (9/21)
Length of Visible Light 13h 08m
Length of Day
12h 12m
Waning Gibbous, 94% of the Moon is Illuminated
Sep 21
Waning Gibbous
Sep 26
Last Quarter
Oct 4
New
Oct 11
First Quarter
Oct 18
Full

Hourly Weather History & Observations

Time (CDT) Temp. Windchill Dew Point Humidity Pressure Visibility Wind Dir Wind Speed Gust Speed Precip Events Conditions
12:54 AM 48.9 °F - 46.9 °F 93% 29.95 in 10.0 mi WNW 5.8 mph - N/A   Clear
1:54 AM 48.0 °F - 46.0 °F 93% 29.94 in 10.0 mi WNW 6.9 mph - N/A   Clear
2:54 AM 46.9 °F - 45.0 °F 93% 29.94 in 10.0 mi WNW 4.6 mph - N/A   Clear
3:54 AM 46.0 °F 43.9 °F 44.1 °F 93% 29.95 in 10.0 mi WNW 4.6 mph - N/A   Clear
4:54 AM 45.0 °F 42.6 °F 43.0 °F 93% 29.96 in 10.0 mi WNW 4.6 mph - N/A   Clear
5:54 AM 45.0 °F 41.8 °F 43.0 °F 93% 29.97 in 10.0 mi WNW 5.8 mph - N/A   Clear
6:54 AM 42.1 °F - 41.0 °F 96% 29.98 in 10.0 mi Calm Calm - N/A   Clear
7:54 AM 46.9 °F - 44.1 °F 90% 30.00 in 10.0 mi WNW 3.5 mph - N/A   Clear
8:54 AM 51.1 °F - 46.9 °F 86% 30.01 in 10.0 mi NNW 8.1 mph - N/A   Clear
9:54 AM 55.0 °F - 48.0 °F 77% 30.01 in 10.0 mi NNW 8.1 mph - N/A   Clear
10:54 AM 59.0 °F - 46.9 °F 64% 30.00 in 10.0 mi NW 9.2 mph - N/A   Clear
11:54 AM 62.1 °F - 45.0 °F 53% 30.00 in 10.0 mi NNW 11.5 mph - N/A   Partly Cloudy
12:54 PM 64.0 °F - 46.0 °F 52% 29.98 in 10.0 mi WNW 6.9 mph 16.1 mph N/A   Partly Cloudy
1:54 PM 64.9 °F - 46.0 °F 50% 29.97 in 10.0 mi NNW 5.8 mph 18.4 mph N/A   Partly Cloudy
2:54 PM 66.9 °F - 46.9 °F 49% 29.95 in 10.0 mi WNW 11.5 mph 16.1 mph N/A   Partly Cloudy
3:54 PM 66.9 °F - 46.9 °F 49% 29.93 in 10.0 mi NNW 8.1 mph - N/A   Clear
4:54 PM 66.9 °F - 46.0 °F 47% 29.92 in 10.0 mi WNW 9.2 mph - N/A   Clear
5:54 PM 66.9 °F - 46.0 °F 47% 29.91 in 10.0 mi WNW 6.9 mph - N/A   Clear
6:54 PM 63.0 °F - 46.0 °F 54% 29.91 in 10.0 mi Calm Calm - N/A   Clear
7:54 PM 55.0 °F - 48.0 °F 77% 29.92 in 10.0 mi Calm Calm - N/A   Clear
8:54 PM 53.1 °F - 50.0 °F 89% 29.94 in 10.0 mi Calm Calm - N/A   Clear
9:54 PM 51.1 °F - 48.0 °F 89% 29.95 in 10.0 mi Calm Calm - N/A   Clear
10:54 PM 48.0 °F - 46.0 °F 93% 29.95 in 10.0 mi Calm Calm - N/A   Clear
11:54 PM 46.9 °F - 45.0 °F 93% 29.96 in 10.0 mi Calm Calm - N/A   Clear